CZ-6A DEB, 56606

Orbit data source: Space-Track

CZ-6A DEB, 56606 is space debris in SSO originally from a launch on Fri, 11 Nov 2022 UTC launched from the Taiyaun Space Center, China (TSC). Debris objects in space refer to the collection of defunct objects orbiting the Earth. Examples of debris include non-operational satellites, rocket bodies, and fragments generated from explosions, collisions, or faulty payload assembly.

Loading next visibility...
Identifier
56606, 2022-151AEE
Orbit
SSO
Country
Flag of CNCN / PRC
Related business
Manufacturer
SAST
Mission
Spacecraft
Bus & Motor
Unknown
Mass
Unknown
Launch date (UTC)
2022-11-11 (4 years ago)
Launch vehicle
Unknown
Launch site
Taiyaun Space Center, China (TSC)
Object type
Payload
Rocket body
Debris
Shape & HBR
Unknown shape, 0.1 m
Radar Cross Section
Small (<0.1 m²)

Expand to show TLE details & history
Last TLE update: 4 days ago

TLE from 4 days ago
0 CZ-6A DEB
1 56606U 22151AEE 26250.71244615  .00000183  00000-0  12797-3 0  9990
2 56606  98.8517 248.8526 0047075 107.0172 253.6164 14.09505874173448
Epoch: 2026-09-07T17:05Z
TLE epoch observation values (Epoch: 2026-09-07T17:05:55.347Z)
Latitude
-0.00002°
Longitude
5.58272°
Altitude
873.721 km
Speed
7.41 km/s
True Right ascension
16h 35m 24s
True Declination
0° 00' 00"
Sunlit
Object was in daylight at epoch
Visualization orbit readout
Latitude
Unknown
Longitude
Unknown
Altitude
Unknown
Speed
Unknown
Apparent Right ascension
Unknown
Apparent Declination
Unknown
Sunlit
N/A
Visualization observer readout
Local Sidereal Time
15:18:02
Azimuth
Unknown
Elevation
Unknown
Doppler factor
Unknown
Orbital elements
Apogee altitude
892.308 km
Perigee altitude
824.177 km
Semi-major axis
7,236.379 km
Eccentricity
0.00471
Inclination
98.8517°
RAAN
248.8526°
Arg. of periapsis
107.0172°
True anomaly
253.09973°
Mean anomaly
253.6164°
Eccentric anomaly
253.35798°
Mean motion
3.52583 °/min
Orbital period
102.1 mins
BSTAR
0.00012797
Loading maneuver chart data...
Computing Atmospheric mass density...
Loading historical data...
Loading historical data...
Loading historical data...
Loading historical data...
Loading historical data...
Loading historical data...
Loading historical data...

Documentation

Showing up to 5 results
|